CW7595 Weather Reports


Display with metric or nautical units.
time (UTC)temp
F
wind
direction
speed
MPH
gust
MPH
rain 1hr
in
rain 24hr
in
rain mn
in
humidity
%
barometer
mb
20260901133019 58 281 0.0 0.0 0.00 0.00 0.00 78 1018.2
20260901131516 56 275 0.0 0.0 0.00 0.00 0.00 82 1018.1
20260901130011 54 27 0.0 0.0 0.00 0.00 0.00 84 1018.1
20260901124520 52 30 0.0 0.0 0.00 0.00 0.00 85 1018.1
20260901123017 51 96 0.0 0.0 0.00 0.00 0.00 85 1017.9
20260901121505 50 96 0.0 0.0 0.00 0.00 0.00 85 1017.8
20260901120006 48 96 0.0 0.0 0.00 0.00 0.00 85 1017.8
20260901114504 48 96 0.0 0.0 0.00 0.00 0.00 85 1017.8
20260901113003 48 96 0.0 0.0 0.00 0.00 0.00 85 1017.6
20260901111502 47 96 0.0 0.0 0.00 0.00 0.00 84 1017.6
20260901110002 47 96 0.0 0.0 0.00 0.00 0.00 84 1017.5
20260901104600 47 96 0.0 0.0 0.00 0.00 0.00 84 1017.5
20260901103058 46 96 0.0 0.0 0.00 0.00 0.00 84 1017.3
20260901101556 47 96 0.0 0.0 0.00 0.00 0.00 84 1017.1
20260901100056 47 96 0.0 0.0 0.00 0.00 0.00 84 1017.0
20260901094555 47 96 0.0 0.0 0.00 0.00 0.00 84 1017.0
20260901093053 47 96 0.0 0.0 0.00 0.00 0.00 84 1017.0
20260901091552 47 96 0.0 0.0 0.00 0.00 0.00 83 1016.9
20260901090050 48 96 0.0 0.0 0.00 0.00 0.00 83 1016.9
20260901084548 48 96 0.0 0.0 0.00 0.00 0.00 83 1016.7
20260901083047 48 96 0.0 0.0 0.00 0.00 0.00 83 1016.6
20260901081545 49 96 0.0 0.0 0.00 0.00 0.00 83 1016.6
20260901080045 49 96 0.0 0.0 0.00 0.00 0.00 83 1016.7
20260901074545 49 96 0.0 0.0 0.00 0.00 0.00 82 1016.7
20260901073041 49 96 0.0 0.0 0.00 0.00 0.00 82 1016.7
20260901071541 50 96 0.0 0.0 0.00 0.00 0.00 82 1016.5
20260901070039 50 96 0.0 0.0 0.00 0.00 0.00 82 1016.5
20260901064538 50 96 0.0 0.0 0.00 0.00 0.00 81 1016.4
20260901063048 50 96 0.0 0.0 0.00 0.00 0.00 81 1016.4
20260901061534 50 96 0.0 0.0 0.00 0.00 0.00 81 1016.4
20260901060033 51 96 0.0 0.0 0.00 0.00 0.00 81 1016.3
20260901054532 51 96 0.0 0.0 0.00 0.00 0.00 81 1016.3
20260901053029 51 96 0.0 0.0 0.00 0.00 0.00 81 1016.2
20260901051537 51 96 0.0 0.0 0.00 0.00 0.00 81 1016.1
20260901050026 52 96 0.0 0.0 0.00 0.00 0.00 80 1016.1
20260901044524 52 96 0.0 0.0 0.00 0.00 0.00 80 1016.1
20260901043031 52 96 0.0 0.0 0.00 0.00 0.00 79 1016.2
20260901041521 53 96 0.0 0.0 0.00 0.00 0.00 79 1016.2
20260901040024 53 96 0.0 0.0 0.00 0.00 0.00 78 1016.0
20260901034518 54 96 0.0 0.0 0.00 0.00 0.00 78 1016.0
20260901033019 54 96 0.0 0.0 0.00 0.00 0.00 77 1016.1
20260901031518 55 96 0.0 0.0 0.00 0.00 0.00 76 1016.1
20260901030016 56 96 0.0 0.0 0.00 0.00 0.00 74 1016.1
20260901024515 56 96 0.0 0.0 0.00 0.00 0.00 73 1016.0
20260901023023 57 96 0.0 0.0 0.00 0.00 0.00 73 1016.1
20260901021514 57 96 0.0 0.0 0.00 0.00 0.00 72 1016.0
20260901020013 57 96 0.0 0.0 0.00 0.00 0.00 70 1016.1
20260901014514 58 96 0.0 0.0 0.00 0.00 0.00 69 1015.8
20260901013014 59 96 0.0 0.0 0.00 0.00 0.00 65 1015.8
20260901011513 60 96 0.0 0.0 0.00 0.00 0.00 64 1015.7
20260901010011 60 96 0.0 0.0 0.00 0.00 0.00 62 1015.7
20260901004510 61 96 0.0 0.0 0.00 0.00 0.00 61 1015.6
20260901003010 61 96 0.0 0.0 0.00 0.00 0.00 61 1015.4
20260901001511 61 96 0.0 0.0 0.00 0.00 0.00 63 1015.3
20260901000009 62 267 0.0 0.0 0.00 0.00 0.00 62 1015.3
20260831234509 63 267 0.0 0.0 0.00 0.00 0.00 60 1015.2
20260831233009 64 264 0.0 0.0 0.00 0.00 0.00 58 1015.2
20260831231507 65 290 0.0 0.0 0.00 0.00 0.00 57 1015.3
20260831230010 66 306 0.0 0.0 0.00 0.00 0.00 56 1015.3
20260831224507 67 355 0.0 3.0 0.00 0.00 0.00 54 1015.2
20260831223006 68 330 0.0 4.0 0.00 0.00 0.00 52 1015.0
20260831221505 68 323 0.0 7.0 0.00 0.00 0.00 50 1014.9
20260831220008 69 271 4.0 10.0 0.00 0.00 0.00 48 1014.8
20260831214505 69 290 2.0 6.0 0.00 0.00 0.00 48 1014.6
20260831213003 70 277 2.0 8.0 0.00 0.00 0.00 47 1014.5
20260831211503 70 317 0.0 9.0 0.00 0.00 0.00 50 1014.5
20260831210003 70 270 1.0 8.0 0.00 0.01 0.00 46 1014.4
20260831204503 71 313 0.0 7.0 0.00 0.01 0.00 49 1014.3
20260831203001 71 260 0.0 7.0 0.00 0.01 0.00 47 1014.3
20260831201503 73 257 1.0 7.0 0.00 0.01 0.00 47 1014.4
20260831200003 73 336 2.0 9.0 0.00 0.01 0.00 47 1014.4
20260831194502 73 296 0.0 10.0 0.00 0.01 0.00 46 1014.4
20260831193103 73 332 2.0 9.0 0.00 0.01 0.00 46 1014.6
20260831191559 74 281 1.0 8.0 0.00 0.01 0.00 46 1014.7
20260831190113 74 290 1.0 10.0 0.00 0.01 0.00 46 1014.6
20260831184606 74 292 2.0 10.0 0.00 0.01 0.00 45 1014.7
20260831183100 73 292 2.0 11.0 0.00 0.01 0.00 47 1014.8
20260831181601 73 360 1.0 8.0 0.00 0.01 0.00 47 1014.8
20260831180053 73 276 3.0 10.0 0.00 0.01 0.00 47 1014.9
20260831174552 73 240 2.0 14.0 0.00 0.01 0.00 49 1014.9
20260831173049 72 283 1.0 12.0 0.00 0.01 0.00 51 1014.8
20260831171548 72 317 1.0 8.0 0.00 0.01 0.00 50 1015.0
20260831170048 71 282 0.0 12.0 0.00 0.01 0.00 50 1014.9
20260831164554 70 288 1.0 8.0 0.00 0.01 0.00 54 1014.9
20260831163043 70 274 0.0 13.0 0.00 0.01 0.00 51 1014.9
20260831161540 69 309 3.0 9.0 0.00 0.01 0.00 56 1015.0
20260831160037 68 279 0.0 6.0 0.00 0.01 0.00 55 1015.1
20260831154535 67 266 0.0 9.0 0.00 0.01 0.00 61 1015.2
20260831153030 65 265 0.0 5.0 0.00 0.01 0.00 60 1015.4
20260831151527 64 274 1.0 8.0 0.00 0.01 0.00 61 1015.6
20260831150025 63 208 0.0 14.0 0.00 0.01 0.00 65 1015.8
20260831144531 62 273 1.0 12.0 0.00 0.01 0.00 64 1015.8
20260831143032 61 264 0.0 8.0 0.00 0.01 0.00 68 1015.9
20260831141540 60 344 0.0 7.0 0.00 0.01 0.00 67 1015.8
20260831140034 60 303 0.0 7.0 0.00 0.01 0.00 69 1015.8
20260831134512 59 295 0.0 9.0 0.00 0.01 0.00 70 1015.8